W0GEN-13 Weather Reports


time (UTC)temp
C
wind
direction
speed
KPH
gust
KPH
rain 1hr
cm
rain 24hr
cm
rain mn
cm
humidity
%
barometer
mb
20260504050016 10 182 3.2 8.0 0.00 0.00 0.00 66 1004.7
20260504045516 10 182 6.4 9.7 0.00 0.00 0.00 66 1004.6
20260504045017 10 182 8.0 9.7 0.00 0.00 0.00 66 1004.7
20260504044517 10 182 8.0 8.0 0.00 0.00 0.00 65 1004.8
20260504044016 10 182 6.4 6.4 0.00 0.00 0.00 63 1004.8
20260504043517 10 184 3.2 6.4 0.00 0.00 0.00 62 1004.8
20260504043016 11 184 1.6 9.7 0.00 0.00 0.00 61 1004.9
20260504042517 11 184 4.8 11.3 0.00 0.00 0.00 61 1005.0
20260504042016 11 184 8.0 12.9 0.00 0.00 0.00 61 1005.1
20260504041517 11 184 8.0 14.5 0.00 0.00 0.00 61 1005.1
20260504041016 11 182 11.3 14.5 0.00 0.00 0.00 60 1005.3
20260504040516 11 177 6.4 9.7 0.00 0.00 0.00 58 1005.2
20260504040016 11 177 4.8 9.7 0.00 0.00 0.00 58 1005.3
20260504035516 11 177 4.8 9.7 0.00 0.00 0.00 57 1005.1
20260504035016 11 177 6.4 9.7 0.00 0.00 0.00 57 1005.2
20260504034016 12 195 6.4 8.0 0.00 0.00 0.00 56 1005.5
20260504033016 12 209 3.2 6.4 0.00 0.00 0.00 55 1005.6
20260504032516 12 209 6.4 6.4 0.00 0.00 0.00 55 1005.7
20260504032016 12 209 4.8 8.0 0.00 0.00 0.00 55 1005.8
20260504031517 13 220 6.4 8.0 0.00 0.00 0.00 53 1005.9
20260504030517 13 241 6.4 8.0 0.00 0.00 0.00 53 1005.8
20260504030016 13 241 6.4 8.0 0.00 0.00 0.00 51 1005.9
20260504025516 14 261 6.4 9.7 0.00 0.00 0.00 50 1005.7
20260504025016 15 257 6.4 11.3 0.00 0.00 0.00 49 1005.8
20260504024516 15 263 8.0 11.3 0.00 0.00 0.00 47 1005.8
20260504024016 15 267 8.0 12.9 0.00 0.00 0.00 47 1005.8
20260504023516 15 277 8.0 12.9 0.00 0.00 0.00 47 1005.8
20260504023017 15 265 8.0 9.7 0.00 0.00 0.00 47 1005.7
20260504022516 16 253 4.8 9.7 0.00 0.00 0.00 45 1005.7
20260504022017 16 247 8.0 9.7 0.00 0.00 0.00 43 1005.7
20260504021516 17 249 8.0 9.7 0.00 0.00 0.00 39 1005.8
20260504021016 17 259 8.0 8.0 0.00 0.00 0.00 39 1005.7
20260504020016 18 261 6.4 9.7 0.00 0.00 0.00 37 1005.7
20260504015516 18 267 6.4 9.7 0.00 0.00 0.00 36 1005.6
20260504015016 18 265 4.8 8.0 0.00 0.00 0.00 37 1005.5
20260504013516 19 269 4.8 12.9 0.00 0.00 0.00 35 1005.5
20260504013016 20 276 8.0 16.1 0.00 0.00 0.00 35 1005.5
20260504012516 20 259 9.7 16.1 0.00 0.00 0.00 34 1005.4
20260504012016 20 263 9.7 12.9 0.00 0.00 0.00 34 1005.4
20260504010516 21 268 8.0 12.9 0.00 0.00 0.00 32 1005.3
20260504010017 21 269 9.7 19.3 0.00 0.00 0.00 31 1005.3
20260504005516 21 282 9.7 19.3 0.00 0.00 0.00 31 1005.1
20260504005016 21 265 16.1 19.3 0.00 0.00 0.00 30 1005.1
20260504004516 22 271 9.7 19.3 0.00 0.00 0.00 31 1005.2
20260504004016 22 274 12.9 19.3 0.00 0.00 0.00 30 1005.3
20260504002516 22 287 20.9 25.7 0.00 0.00 0.00 30 1005.3
20260504002016 22 269 17.7 25.7 0.00 0.00 0.00 29 1005.3
20260504001516 22 281 12.9 25.7 0.00 0.00 0.00 28 1005.2
20260504001016 23 257 20.9 27.4 0.00 0.00 0.00 28 1005.2
20260504000516 23 284 9.7 27.4 0.00 0.00 0.00 28 1005.1
20260504000016 23 273 25.7 27.4 0.00 0.00 0.00 27 1005.2
20260503235016 23 289 17.7 25.7 0.00 0.00 0.00 28 1005.1
20260503234516 23 253 19.3 24.1 0.00 0.00 0.00 27 1005.1
20260503234016 23 268 11.3 24.1 0.00 0.00 0.00 28 1005.0
20260503233516 23 302 9.7 27.4 0.00 0.00 0.00 27 1005.1
20260503233016 23 262 17.7 29.0 0.00 0.00 0.00 28 1005.2
20260503232516 23 265 24.1 29.0 0.00 0.00 0.00 28 1005.2
20260503231016 23 302 22.5 33.8 0.00 0.00 0.00 27 1005.1
20260503230016 23 266 24.1 32.2 0.00 0.00 0.00 27 1005.1
20260503225516 23 229 24.1 35.4 0.00 0.00 0.00 28 1005.1
20260503225016 23 293 11.3 35.4 0.00 0.00 0.00 28 1005.1
20260503224516 24 268 17.7 29.0 0.00 0.00 0.00 28 1005.1
20260503223516 24 275 16.1 30.6 0.00 0.00 0.00 27 1005.1
20260503223016 24 263 16.1 30.6 0.00 0.00 0.00 25 1005.1
20260503222516 25 305 20.9 29.0 0.00 0.00 0.00 25 1005.1
20260503221516 25 290 24.1 33.8 0.00 0.00 0.00 25 1005.0
20260503221016 25 252 14.5 33.8 0.00 0.00 0.00 24 1005.0
20260503220516 25 317 20.9 27.4 0.00 0.00 0.00 25 1005.0
20260503220016 25 288 19.3 35.4 0.00 0.00 0.00 25 1005.1
20260503214516 25 5 4.8 30.6 0.00 0.00 0.00 26 1005.2
20260503213516 25 307 17.7 35.4 0.00 0.00 0.00 24 1005.2
20260503213016 25 303 12.9 37.0 0.00 0.00 0.00 26 1005.1
20260503212516 25 286 22.5 37.0 0.00 0.00 0.00 26 1005.2
20260503212016 25 5 19.3 27.4 0.00 0.00 0.00 27 1005.2
20260503211516 25 267 27.4 27.4 0.00 0.00 0.00 27 1005.2
20260503211016 25 338 11.3 29.0 0.00 0.00 0.00 26 1005.2
20260503210516 25 319 12.9 29.0 0.00 0.00 0.00 27 1005.2
20260503210016 25 267 8.0 32.2 0.00 0.00 0.00 26 1005.3
20260503205016 25 298 20.9 38.6 0.00 0.00 0.00 28 1005.3
20260503204516 25 306 22.5 32.2 0.00 0.00 0.00 26 1005.4
20260503204016 25 293 16.1 35.4 0.00 0.00 0.00 28 1005.4
20260503203016 25 306 30.6 41.8 0.00 0.00 0.00 29 1005.5
20260503202516 25 315 20.9 41.8 0.00 0.00 0.00 29 1005.6
20260503202016 25 303 22.5 32.2 0.00 0.00 0.00 29 1005.6
20260503201016 24 296 27.4 32.2 0.00 0.00 0.00 33 1005.5
20260503200516 24 271 29.0 33.8 0.00 0.00 0.00 30 1005.5
20260503200016 24 281 22.5 35.4 0.00 0.00 0.00 32 1005.5
20260503195516 25 273 33.8 35.4 0.00 0.00 0.00 28 1005.7
20260503195016 25 282 11.3 32.2 0.00 0.00 0.00 31 1005.6
20260503194516 25 273 19.3 33.8 0.00 0.00 0.00 28 1005.7
20260503194016 25 299 22.5 35.4 0.00 0.00 0.00 31 1005.7
20260503193516 25 311 30.6 35.4 0.00 0.00 0.00 31 1005.7
20260503193015 25 325 35.4 35.4 0.00 0.00 0.00 32 1005.8
20260503192515 25 316 19.3 35.4 0.00 0.00 0.00 32 1005.7
20260503192016 25 355 22.5 35.4 0.00 0.00 0.00 33 1005.6
20260503191016 25 304 32.2 37.0 0.00 0.00 0.00 34 1005.7
20260503190515 25 324 6.4 37.0 0.00 0.00 0.00 32 1005.8
20260503190015 25 282 17.7 40.2 0.00 0.00 0.00 33 1005.7
20260503185515 25 264 22.5 40.2 0.00 0.00 0.00 32 1005.7
20260503185016 25 300 25.7 38.6 0.00 0.00 0.00 33 1005.8
20260503184516 25 296 27.4 35.4 0.00 0.00 0.00 34 1005.7
20260503184015 24 317 20.9 38.6 0.00 0.00 0.00 33 1005.5
20260503183516 24 305 35.4 38.6 0.00 0.00 0.00 33 1005.6
20260503183016 23 280 32.2 35.4 0.00 0.00 0.00 35 1005.6
20260503182516 23 281 22.5 33.8 0.00 0.00 0.00 34 1005.7
20260503182016 23 294 27.4 37.0 0.00 0.00 0.00 34 1005.6
20260503181515 23 279 29.0 37.0 0.00 0.00 0.00 35 1005.7
20260503181015 23 285 22.5 37.0 0.00 0.00 0.00 36 1005.7
20260503180515 23 305 19.3 33.8 0.00 0.00 0.00 37 1005.8
20260503180016 23 300 14.5 30.6 0.00 0.00 0.00 36 1005.9
20260503175515 23 286 8.0 30.6 0.00 0.00 0.00 35 1005.9
20260503174516 23 295 11.3 29.0 0.00 0.00 0.00 37 1005.9
20260503173015 22 285 14.5 27.4 0.00 0.00 0.00 36 1005.9
20260503172516 22 265 19.3 25.7 0.00 0.00 0.00 39 1006.1
20260503172015 22 270 24.1 25.7 0.00 0.00 0.00 39 1006.1
20260503171516 21 252 11.3 32.2 0.00 0.00 0.00 41 1006.1
20260503171015 21 277 24.1 32.2 0.00 0.00 0.00 40 1006.1
20260503170515 21 280 8.0 30.6 0.00 0.00 0.00 41 1006.2
20260503150515 16 226 25.7 35.4 0.00 0.00 0.00 48 1006.8
20260503131015 12 165 20.9 30.6 0.00 0.00 0.00 54 1007.9
20260503130515 12 192 25.7 30.6 0.00 0.00 0.00 54 1008.0
20260503110515 12 144 12.9 27.4 0.00 0.00 0.00 53 1008.8
20260503081515 12 192 9.7 20.9 0.00 0.00 0.00 48 1012.3
20260503081015 12 169 6.4 17.7 0.00 0.00 0.00 48 1012.2
20260503072015 12 209 12.9 22.5 0.00 0.00 0.00 48 1012.1
20260503071515 12 160 9.7 22.5 0.00 0.00 0.00 47 1012.0
20260503071014 12 199 8.0 19.3 0.00 0.00 0.00 48 1012.1
20260503070514 12 216 3.2 20.9 0.00 0.00 0.00 48 1012.6